Change the Weather History Date:

Wednesday, July 31, 2013

  Actual Average (KCHS) Record (KCHS)
Temperature  
Mean Temperature 81 °F 82 °F  
Max Temperature 87 °F 91 °F 101 °F (1999)
Min Temperature 75 °F 73 °F 63 °F (1997)
Degree Days  
Heating Degree Days 0 0  
Month to date heating degree days 0  
Since 1 June heating degree days 1  
Since 1 July heating degree days 0  
Cooling Degree Days 16 17  
Month to date cooling degree days 529  
Year to date cooling degree days 1312  
Since 1 June cooling degree days 950  
Growing Degree Days 31 (Base 50)    
Moisture  
Dew Point 76 °F    
Average Humidity 94    
Maximum Humidity 100    
Minimum Humidity 79    
Precipitation  
Precipitation 0.45 in 0.21 in 3.23 in (1949)
Month to date precipitation 6.53  
Year to date precipitation 28.49  
Sea Level Pressure  
Sea Level Pressure 30.09 in    
Wind  
Wind Speed 1 mph (SSE)    
Max Wind Speed 8 mph    
Max Gust Speed -    
Visibility 6 miles    
Events Rain , Thunderstorm    
T = Trace of Precipitation, MM = Missing Value Source: NWS Daily Summary

Daily Weather History Graph

Daily Weather History Graph

Search for Another Location

Airport or City:

Trip Planner

Search our weather history database for the weather conditions in past years. The results will help you decide how hot, cold, wet, or windy it might be!

Date:

Astronomy

Jul. 31, 2013 Rise Set
Actual Time 6:32 AM EDT 8:19 PM EDT
Civil Twilight 6:05 AM EDT 8:46 PM EDT
Nautical Twilight 5:32 AM EDT 9:19 PM EDT
Astronomical Twilight 4:58 AM EDT 9:54 PM EDT
Moon 1:26 AM EDT (7/31) 3:33 PM EDT (7/31)
Length of Visible Light 14h 41m
Length of Day
13h 47m
Waning Crescent, 32% of the Moon is Illuminated
Jul 31
Waning Crescent
Aug 6
New
Aug 14
First Quarter
Aug 20
Full
Aug 28
Last Quarter

Hourly Weather History & Observations

Time (EDT) Temp. Heat Index Dew Point Humidity Pressure Visibility Wind Dir Wind Speed Gust Speed Precip Events Conditions
12:15 AM 77.0 °F - 77.0 °F 100% 30.14 in 5.0 mi Calm Calm - N/A   Clear
12:35 AM 75.2 °F - 75.2 °F 100% 30.14 in 5.0 mi Calm Calm - N/A   Clear
12:55 AM 75.2 °F - 75.2 °F 100% 30.14 in 5.0 mi Calm Calm - N/A   Clear
1:15 AM 75.2 °F - 75.2 °F 100% 30.13 in 7.0 mi Calm Calm - N/A   Mostly Cloudy
1:35 AM 75.2 °F - 75.2 °F 100% 30.13 in 5.0 mi Calm Calm - N/A   Mostly Cloudy
1:55 AM 75.2 °F - 75.2 °F 100% 30.13 in 4.0 mi Calm Calm - N/A   Mostly Cloudy
2:15 AM 75.2 °F - 75.2 °F 100% 30.12 in 5.0 mi Calm Calm - N/A   Scattered Clouds
2:55 AM 75.2 °F - 75.2 °F 100% 30.11 in 4.0 mi Calm Calm - N/A   Clear
3:15 AM 75.2 °F - 75.2 °F 100% 30.10 in 4.0 mi Calm Calm - N/A   Clear
3:35 AM 75.2 °F - 75.2 °F 100% 30.10 in 5.0 mi Calm Calm - N/A   Clear
3:55 AM 75.2 °F - 75.2 °F 100% 30.10 in 7.0 mi Calm Calm - N/A   Clear
4:15 AM 75.2 °F - 75.2 °F 100% 30.10 in 5.0 mi Calm Calm - N/A   Clear
4:35 AM 75.2 °F - 75.2 °F 100% 30.10 in 5.0 mi Calm Calm - N/A   Clear
4:55 AM 75.2 °F - 75.2 °F 100% 30.10 in 7.0 mi Calm Calm - N/A   Clear
5:15 AM 75.2 °F - 75.2 °F 100% 30.10 in 5.0 mi Calm Calm - N/A   Clear
5:35 AM 75.2 °F - 75.2 °F 100% 30.10 in 2.5 mi Calm Calm - N/A   Clear
5:55 AM 75.2 °F - 75.2 °F 100% 30.11 in 3.0 mi Calm Calm - N/A   Clear
6:15 AM 75.2 °F - 75.2 °F 100% 30.11 in 5.0 mi Calm Calm - N/A   Clear
6:35 AM 75.2 °F - 75.2 °F 100% 30.11 in 5.0 mi Calm Calm - N/A   Clear
6:55 AM 75.2 °F - 75.2 °F 100% 30.12 in 5.0 mi Calm Calm - N/A   Scattered Clouds
7:15 AM 75.2 °F - 75.2 °F 100% 30.12 in 3.0 mi Calm Calm - N/A   Overcast
7:35 AM 75.2 °F - 75.2 °F 100% 30.12 in 2.0 mi Calm Calm - N/A   Overcast
7:55 AM 77.0 °F - 77.0 °F 100% 30.13 in 1.8 mi Calm Calm - N/A   Overcast
8:15 AM 77.0 °F - 77.0 °F 100% 30.13 in 1.0 mi Calm Calm - N/A   Overcast
8:35 AM 77.0 °F - 77.0 °F 100% 30.13 in 2.0 mi Calm Calm - N/A   Overcast
8:55 AM 78.8 °F - 78.8 °F 100% 30.13 in 4.0 mi Calm Calm - N/A   Mostly Cloudy
9:15 AM 80.6 °F 88.1 °F 78.8 °F 94% 30.13 in 7.0 mi Calm Calm - N/A   Scattered Clouds
9:35 AM 82.4 °F 92.4 °F 78.8 °F 89% 30.13 in 7.0 mi Calm Calm - N/A   Scattered Clouds
9:55 AM 84.2 °F 94.1 °F 77.0 °F 79% 30.13 in 7.0 mi Calm Calm - N/A   Clear
10:15 AM 84.2 °F 94.1 °F 77.0 °F 79% 30.13 in 10.0 mi Calm Calm - N/A   Clear
10:35 AM 84.2 °F 94.1 °F 77.0 °F 79% 30.13 in 7.0 mi Calm Calm - N/A   Clear
10:55 AM 86.0 °F 99.3 °F 78.8 °F 79% 30.13 in 10.0 mi Calm Calm - N/A   Clear
11:15 AM 86.0 °F 99.3 °F 78.8 °F 79% 30.13 in 7.0 mi Calm Calm - N/A   Mostly Cloudy
11:35 AM 86.0 °F 99.3 °F 78.8 °F 79% 30.13 in 10.0 mi East 3.5 mph - N/A   Overcast
11:55 AM 86.0 °F 99.3 °F 78.8 °F 79% 30.12 in 7.0 mi SE 4.6 mph - N/A   Mostly Cloudy
12:15 PM 86.0 °F 99.3 °F 78.8 °F 79% 30.11 in 10.0 mi East 5.8 mph - N/A   Mostly Cloudy
12:35 PM 86.0 °F 99.3 °F 78.8 °F 79% 30.11 in 7.0 mi East 4.6 mph - N/A   Mostly Cloudy
12:55 PM 86.0 °F 99.3 °F 78.8 °F 79% 30.11 in 10.0 mi ESE 3.5 mph - N/A   Scattered Clouds
1:15 PM 86.0 °F 99.3 °F 78.8 °F 79% 30.10 in 10.0 mi SE 3.5 mph - N/A   Scattered Clouds
1:35 PM 87.8 °F 104.9 °F 80.6 °F 79% 30.09 in 7.0 mi ESE 4.6 mph - N/A Thunderstorm Scattered Clouds
1:55 PM 86.0 °F 99.3 °F 78.8 °F 79% 30.09 in 7.0 mi SE 3.5 mph - N/A Thunderstorm Scattered Clouds
2:15 PM 86.0 °F 99.3 °F 78.8 °F 79% 30.08 in 7.0 mi Calm Calm - N/A Rain , Thunderstorm Light Thunderstorms and Rain
2:35 PM 80.6 °F 86.2 °F 75.2 °F 84% 30.09 in 7.0 mi SSE 8.1 mph - 0.01 in Rain , Thunderstorm Light Thunderstorms and Rain
2:55 PM 77.0 °F - 73.4 °F 89% 30.07 in 7.0 mi SSW 6.9 mph - 0.03 in Rain , Thunderstorm Thunderstorms and Rain
3:15 PM 75.2 °F - 75.2 °F 100% 30.06 in 7.0 mi ESE 3.5 mph - N/A Thunderstorm Mostly Cloudy
3:35 PM 78.8 °F - 75.2 °F 89% 30.05 in 7.0 mi ESE 5.8 mph - N/A   Clear
3:55 PM 78.8 °F - 75.2 °F 89% 30.05 in 5.0 mi SSE 4.6 mph - N/A   Scattered Clouds
4:15 PM 78.8 °F - 75.2 °F 89% 30.05 in 10.0 mi SE 5.8 mph - N/A   Mostly Cloudy
4:35 PM 77.0 °F - 75.2 °F 94% 30.03 in 7.0 mi SE 3.5 mph - N/A Thunderstorm Mostly Cloudy
4:55 PM 78.8 °F - 75.2 °F 89% 30.04 in 7.0 mi SE 3.5 mph - N/A Thunderstorm Scattered Clouds
5:15 PM 78.8 °F - 75.2 °F 89% 30.05 in 7.0 mi East 3.5 mph - N/A   Clear
5:35 PM 77.0 °F - 75.2 °F 94% 30.05 in 10.0 mi Calm Calm - N/A   Scattered Clouds
5:55 PM 77.0 °F - 75.2 °F 94% 30.05 in 7.0 mi Calm Calm - N/A Thunderstorm Overcast
6:15 PM 77.0 °F - 77.0 °F 100% 30.05 in 7.0 mi SSW 3.5 mph - 0.01 in Rain , Thunderstorm Rain
6:35 PM 77.0 °F - 75.2 °F 94% 30.05 in 5.0 mi South 3.5 mph - 0.05 in Rain , Thunderstorm Rain
6:55 PM 75.2 °F - 75.2 °F 100% 30.05 in 5.0 mi SW 4.6 mph - 0.08 in Rain Rain
7:15 PM 75.2 °F - 75.2 °F 100% 30.05 in 5.0 mi Calm Calm - 0.04 in Rain Rain
7:35 PM 75.2 °F - 75.2 °F 100% 30.05 in 4.0 mi SSW 3.5 mph - 0.10 in Rain Rain
7:55 PM 77.0 °F - 77.0 °F 100% 30.05 in 4.0 mi SSW 4.6 mph - 0.19 in Rain Rain
8:15 PM 77.0 °F - 77.0 °F 100% 30.05 in 5.0 mi SSW 6.9 mph - 0.06 in Rain Rain
8:35 PM 75.2 °F - 75.2 °F 100% 30.05 in 7.0 mi SSW 6.9 mph - 0.10 in Rain Light Rain
8:55 PM 75.2 °F - 75.2 °F 100% 30.05 in 7.0 mi SSW 4.6 mph - 0.11 in Rain Light Rain
9:15 PM 75.2 °F - 75.2 °F 100% 30.05 in 7.0 mi SSW 3.5 mph - 0.01 in Rain Light Rain
9:35 PM 75.2 °F - 75.2 °F 100% 30.05 in 10.0 mi SSW 3.5 mph - 0.02 in Rain Rain
9:55 PM 75.2 °F - 75.2 °F 100% 30.05 in 10.0 mi Calm Calm - 0.02 in Rain Light Rain
10:15 PM 75.2 °F - 75.2 °F 100% 30.05 in 10.0 mi Calm Calm - 0.01 in Rain Rain
10:35 PM 75.2 °F - 75.2 °F 100% 30.05 in 10.0 mi Calm Calm - 0.01 in Rain Rain
10:55 PM 75.2 °F - 75.2 °F 100% 30.05 in 7.0 mi Calm Calm - 0.02 in Rain Rain
11:15 PM 75.2 °F - 75.2 °F 100% 30.04 in 10.0 mi Calm Calm - N/A   Drizzle
11:35 PM 75.2 °F - 75.2 °F 100% 30.04 in 7.0 mi Calm Calm - N/A   Light Drizzle
11:55 PM 75.2 °F - 75.2 °F 100% 30.03 in 7.0 mi Calm Calm - N/A   Mostly Cloudy